Hourly Weather Roundup
Issued by NWS Central Illinois

Home | Current Version | Previous Version | Text Only | Print | Product List | Glossary On
Versions: 1 2 3 4 5 6 7 8 9 10 11 12 13 14 15 16 17 18 19 20 21 22 23 24 25 26 27 28 29 30 31 32 33 34 35 36 37 38 39 40 41 42 43 44 45 46 47 48 49 50
000
NZUS43 KILX 310410
HWRILX

AREA WEATHER ROUNDUP
NATIONAL WEATHER SERVICE, LINCOLN IL
1100 PM CDT SAT AUG 30 2014


CITY           SKY/WX    TMP DP  RH WIND       PRES   REMARKS
BLOOMINGTON    MOCLDY    72  70  93 S9        29.95R
CHAMPAIGN      CLOUDY    73  71  93 S9        29.96S
DECATUR        CLOUDY    75  72  90 S8        29.95S
FLORA          CLOUDY    72  70  94 S12       30.00R
GALESBURG      CLEAR     68  66  94 CALM      29.92R
JACKSONVILLE   PTCLDY    75  72  91 S6        29.94R
LACON          PTCLDY    70  68  92 CALM      29.91R
LAWRENCEVILLE  CLOUDY    71  70  96 S10       30.01R
LITCHFIELD     MOCLDY    73  72  96 S9        29.95S
$$


CITY           SKY/WX    TMP DP  RH WIND       PRES   REMARKS
LINCOLN        MOCLDY    75  71  88 S6        29.90S
MACOMB         PTCLDY    68  67  98 CALM      29.94R
MATTOON        CLOUDY    74  71  91 S8        29.97R
MT CARMEL AP   CLOUDY    73  70  88 S5        30.01S
OLNEY-NOBLE AP CLOUDY    70  70 100 S6        30.00S
PARIS          CLOUDY    73  71  94 S10       29.99S
PEORIA         MOCLDY    76  70  82 S3        29.92R
PONTIAC        CLOUDY    73  72  94 CALM      29.94R
RANTOUL        CLOUDY    75  71  86 S7        29.97R
ROBINSON       CLOUDY    72  71  94 S3        30.02R
SPRINGFIELD    MOCLDY    76  71  85 S8        29.93R
TAYLORVILLE    MOCLDY    72  72 100 S7        29.95R
$$

...REGIONAL REPORTS...


CITY           SKY/WX    TMP DP  RH WIND       PRES   REMARKS
CHICAGO O`HARE PTCLDY    73  64  73 W6        29.90S
KANKAKEE       RAIN      69  66  90 S14       29.95R
MOLINE         CLEAR     67  65  93 S3        29.91R
MOUNT VERNON   CLOUDY    73  66  78 S8        30.00S
PITTSFIELD     PTCLDY    74  68  82 S3        29.93F
QUINCY         PTCLDY    74  72  93 CALM      29.92S
ROCKFORD       PTCLDY    68  64  87 S5        29.92R
$$


CITY           SKY/WX    TMP DP  RH WIND       PRES   REMARKS
BURLINGTON     LGT RAIN  69  68  96 CALM      29.91R
CEDAR RAPIDS   CLEAR     67  66  97 CALM      29.90S
DES MOINES     CLEAR     70  65  84 CALM      29.89S
KIRKSVILLE     CLEAR     69  67  93 CALM      29.93S
OTTUMWA        CLEAR     67  65  93 SE5       29.90S
ST LOUIS       PTCLDY    78  72  81 S8        29.94S HX  80
$$


CITY           SKY/WX    TMP DP  RH WIND       PRES   REMARKS
TERRE HAUTE    CLOUDY    72  68  87 S9        30.01R
EVANSVILLE     CLOUDY    72  69  90 S6        30.02F
INDIANAPOLIS   CLOUDY    72  68  87 S9        30.00S
LAFAYETTE      CLOUDY    73  70  90 W8        29.97R
MADISON        MOCLDY    68  65  90 NW6       29.90R
MILWAUKEE      PTCLDY    72  66  81 SW6       29.89R
$$




USA.gov is the U.S. government's official web portal to all federal, state and local government web resources and services.